Regional Weather Roundup
Issued by NWS Newport/Morehead, NC

Home | Current Version | Previous Version | Text Only | Print | Product List | Glossary On
Versions: 1 2 3 4 5 6 7 8 9 10 11 12 13 14 15 16 17 18 19 20 21 22 23 24 25 26 27 28 29 30 31 32 33 34 35 36 37 38 39 40 41 42 43 44 45 46 47 48 49 50
000
ASUS42 KMHX 020125
RWRMHX
WEATHER ROUNDUP FOR EASTERN NORTH CAROLINA
NATIONAL WEATHER SERVICE NEWPORT/MOREHEAD CITY NC
900 PM EDT MON JUN 01 2015

NOTE: "FAIR" INDICATES FEW OR NO CLOUDS BELOW 12,000 FEET
WITH NO SIGNIFICANT WEATHER AND/OR OBSTRUCTIONS TO VISIBILITY

NCZ015>017-031-032-045>047-102-103-020200-
NORTH COAST

CITY           SKY/WX    TMP DP  RH WIND       PRES   REMARKS
EDENTON        CLEAR     77  69  77 S10       30.03R
ELIZABETH CITY CLEAR     77  67  71 S10       30.02R
KITTY HAWK     CLEAR     77  68  74 S7        30.02S
MANTEO         CLEAR     77  69  75 S17       30.04R

$$

NCZ045>047-081-094-103-104-020200-
CENTRAL COAST

CITY           SKY/WX    TMP DP  RH WIND       PRES   REMARKS
FRISCO         PTCLDY    77  68  73 S12       30.05S
SWANQUARTER      N/A     77 N/A N/A S9G21     30.00S

$$

NCZ095-097-098-100-101-020200-
SOUTHERN COAST

CITY           SKY/WX    TMP DP  RH WIND       PRES   REMARKS
BEAUFORT       CLEAR     76  68  76 S8        30.04F
CEDAR ISLAND     N/A     75 N/A N/A S6        30.09S
JACKSONVILLE   CLEAR     75  68  78 S6        30.03S
PINEY ISLAND   CLEAR    N/A N/A N/A S6        30.04S
WILMINGTON     CLEAR     76  69  79 S7        30.03S


$$

NCZ011>013-027>030-043-044-078>080-089-090>093-098-020200-
COASTAL PLAIN

CITY           SKY/WX    TMP DP  RH WIND       PRES   REMARKS
AHOSKIE        PTCLDY    77  67  71 S9        30.01R
CLINTON        MOCLDY    79  68  68 SW3       30.03R
ELIZABETHTOWN  MOCLDY    78  67  67 S3        30.03R
GOLDSBORO      PTCLDY    79  67  66 S1        29.99R
GREENVILLE     PTCLDY    79  66  65 S9        30.03R
HAVELOCK       CLEAR     75  66  73 S6        30.05S
KENANSVILLE    PTCLDY    76  65  67 SE3       30.03S
KINSTON        PTCLDY    77  66  69 S10       30.02R
NEW BERN       CLEAR     75  67  76 S6        30.04S
RICHLANDS      CLEAR     73  64  73 S5        30.04S
ROCKY MOUNT    MOCLDY    81  69  67 S8        30.00R
WASHINGTON     CLEAR     76  66  70 S6        30.03R
WHITEVILLE     PTCLDY    77  69  76 S3        30.02S

$$

AMZ130-135-150-152-154-156-158-170-250-252-270-ANZ085-086-088-633-658-670-020200-
MARINE OBSERVATIONS

STATION/POSITION TIME  TEMP    WIND        PRES    WAVE   SWELL
                       AIR SEA DIR/SP/G            HT/PER HT/PER
                 (UTC) (F)     (DEG/KT/KT) (MB)    (FT/S) (FT/S)
CHESAPEAKE LIGHT 0100   72     170/ 23/ 24 1016.5
64 E VA BEACH    0050   73 70  170/  6/  8 1016.8    3/ 9   3/ 9
DUCK             0100   76 60  170/ 13/ 20 1015.6
2 E DUCK         0011      68                N/A     3/ 9
OREGON INLET     0100   77 83  180/ 12/ 14 1017.3
13E OREGON INLT  0100      77                N/A     3/ 8
HATTERAS CG      0100   78 81  180/  5/ 10 1017.2
DIAMOND BUOY     0050   78 80  180/ 14/ 16 1017.4    4/ 9   3/ 9
CAPE LOOKOUT     0100   77     180/ 11/ 11 1017.2
BEAUFORT LAB     0100   78 78  190/ 13/ 14 1016.5
30 SE NEW RVR IN 0008   78 78  200/ 10/ 12 1017.5
27 SE WRIGHTSVLE 0100      78  200/ 10/ 12   N/A
5 SE WRIGHTSVLE  NOT AVBL
225 S CAPE HAT   0050   76 77   70/  2/  4 1017.8    4/ 8   3/ 8
41 SE CHARLESTON 0050   80 80  160/  6/  8 1016.8    3/ 9   3/ 9

$$



USA.gov is the U.S. government's official web portal to all federal, state and local government web resources and services.